Lid_Strength_Index
10 12 14 12 10 8 7 6 6 7 7 7 6 3 4 1 0 0 -0 -1 -1 -1 -1 -1 -1 -1 -1 -1 -1 -1 -1 -1
12 14 12 11 9 7 7 6 5 5 6 6 2 2 1 0 1 1 -0 -1 -1 -1 -1 -1 -1 -1 -1 -1 -1 -1 -1 -1
12 13 12 10 8 7 7 6 5 5 6 6 3 1 1 0 1 0 -0 -1 -1 -1 -1 -1 -1 -1 -1 -1 -1 -1 -1 -1
13 12 11 10 7 7 7 6 5 5 6 6 2 2 1 1 1 -0 0 -0 -1 -1 -1 -1 -1 -1 -1 -1 -1 -1 -1 -1
11 11 10 10 7 7 6 5 5 4 7 5 4 1 1 1 1 0 -0 -0 -1 -1 -1 -1 -1 -1 -1 -1 -1 -1 -1 -1
10 11 11 8 7 6 6 6 3 3 7 6 5 1 2 1 0 0 -0 -0 -0 -1 -1 -1 -1 -1 -1 -1 -1 -1 -1 -1
10 10 10 6 8 6 5 5 4 4 5 5 4 1 1 2 1 1 1 0 -0 -0 -1 -1 -1 -1 -1 -1 -1 -1 -1 -1
7 7 8 7 8 8 7 6 5 5 4 5 5 2 2 3 2 2 1 1 0 -0 -0 -1 -1 -1 -1 -1 -1 -1 -1 -1
7 6 6 7 8 8 8 7 5 6 5 7 6 5 3 2 2 2 1 1 0 -0 -0 -0 -0 -1 -1 -1 -1 -1 -1 -1
7 7 8 8 8 9 9 7 6 6 6 6 7 6 6 5 2 2 1 1 0 -0 -0 -0 -0 -0 -0 -0 -1 -0 -1 -1
7 8 9 9 10 10 10 7 6 6 6 6 7 6 5 4 3 2 1 1 1 -0 0 -0 -0 -0 -0 -0 -0 -1 -1 -1
8 8 9 10 11 10 9 8 7 7 6 6 7 7 6 4 2 2 1 1 0 0 0 -0 0 -0 -0 -0 -1 -1 -1 -1
8 8 9 9 12 11 9 8 8 7 7 7 7 7 7 6 5 3 2 1 0 0 -0 0 0 -0 -0 -0 -0 -0 -0 -1
9 9 9 9 13 10 10 10 9 9 8 7 7 7 6 6 5 4 3 2 1 0 0 0 0 0 0 -0 -0 -0 -1 -1
11 8 9 9 11 10 9 10 10 9 8 8 7 6 5 6 5 4 4 2 2 0 1 0 0 0 -0 -0 -0 -0 -1 -1
12 10 9 10 10 9 9 10 10 10 9 8 8 7 6 5 5 4 4 3 3 1 1 0 0 -0 0 0 -0 -0 -0 -0
11 10 10 10 10 9 8 9 9 8 9 9 8 7 6 5 4 5 4 3 3 3 1 0 1 1 1 2 1 0 0 -0
10 9 10 10 11 10 9 8 8 8 7 7 7 7 7 6 5 4 4 3 3 3 2 1 1 1 1 1 1 0 -0 -0
12 10 9 11 12 11 9 8 8 7 7 7 7 6 6 6 5 4 4 3 3 3 2 2 -0 0 1 0 1 1 1 1
11 12 14 11 16 12 10 10 9 8 7 7 7 6 5 4 4 5 5 4 3 2 2 1 1 0 1 2 2 2 1 1